date(mm/dd/yyyy),time(HH:MM:SS.SSS),time (unix sec),lat (dec. deg.), lon (dec. deg.), depth (m), alt (m)  
12/01/2017,13:50:05.984,1512136205.984,24.621075333333,-84.103558833333, 190.2,  nan 
12/01/2017,13:50:13.956,1512136213.956,24.621073666667,-84.103564000000, 194.1,  nan 
12/01/2017,13:50:21.600,1512136221.600,24.621074333333,-84.103564500000, 198.0,  nan 
12/01/2017,13:50:29.572,1512136229.572,24.621077500000,-84.103570166667, 202.3,  nan 
12/01/2017,13:50:37.215,1512136237.215,24.621082666667,-84.103571166667, 206.7,  nan 
12/01/2017,13:50:45.186,1512136245.186,24.621092666667,-84.103576666667, 211.3,  nan 
12/01/2017,13:50:52.836,1512136252.836,24.621101833333,-84.103580666667, 215.6,  nan 
12/01/2017,13:51:00.805,1512136260.805,24.621110166667,-84.103579666667, 220.6,  nan 
12/01/2017,13:51:08.669,1512136268.669,24.621122833333,-84.103580333333, 225.6,  nan 
12/01/2017,13:51:16.419,1512136276.419,24.621132833333,-84.103591833333, 230.5,  nan 
12/01/2017,13:51:24.284,1512136284.284,24.621147500000,-84.103597166667, 235.6,  nan 
12/01/2017,13:51:32.037,1512136292.037,24.621160500000,-84.103593166667, 240.4,  nan 
12/01/2017,13:51:39.903,1512136299.903,24.621168833333,-84.103589333333, 245.4,  nan 
12/01/2017,13:51:47.653,1512136307.653,24.621184166667,-84.103590166667, 250.0,  nan 
12/01/2017,13:51:55.513,1512136315.513,24.621185833333,-84.103582666667, 255.1,  nan 
12/01/2017,13:52:03.266,1512136323.266,24.621191500000,-84.103578833333, 260.2,  nan 
12/01/2017,13:52:11.130,1512136331.130,24.621209166667,-84.103570166667, 264.9,  nan 
12/01/2017,13:52:18.883,1512136338.883,24.621214666667,-84.103552000000, 269.3,  nan 
12/01/2017,13:52:26.746,1512136346.746,24.621238333333,-84.103550666667, 273.5,  nan 
12/01/2017,13:52:34.505,1512136354.505,24.621249833333,-84.103544333333, 277.7,  nan 
12/01/2017,13:52:42.365,1512136362.365,24.621249833333,-84.103535833333, 282.1,  nan 
12/01/2017,13:52:50.115,1512136370.115,24.621264500000,-84.103536000000, 286.7,  nan 
12/01/2017,13:52:57.978,1512136377.978,24.621259833333,-84.103522500000, 290.6,  nan 
12/01/2017,13:53:05.731,1512136385.731,24.621265333333,-84.103518666667, 293.7,  nan 
12/01/2017,13:53:13.596,1512136393.596,24.621271833333,-84.103515000000, 297.1,  nan 
12/01/2017,13:53:21.568,1512136401.568,24.621276666667,-84.103509500000, 300.4,  nan 
12/01/2017,13:53:29.209,1512136409.209,24.621279000000,-84.103488333333, 303.6,  nan 
12/01/2017,13:53:37.187,1512136417.187,24.621284666667,-84.103490833333, 306.8,  nan 
12/01/2017,13:53:44.829,1512136424.829,24.621288833333,-84.103487500000, 309.8,  nan 
12/01/2017,13:53:52.801,1512136432.801,24.621297166667,-84.103479000000, 312.7,  nan 
12/01/2017,13:54:00.443,1512136440.443,24.621310000000,-84.103468500000, 315.9,  nan 
12/01/2017,13:54:08.418,1512136448.418,24.621317000000,-84.103464500000, 319.9,  nan 
12/01/2017,13:54:16.276,1512136456.276,24.621322166667,-84.103455333333, 324.1,  nan 
12/01/2017,13:54:24.029,1512136464.029,24.621321833333,-84.103439666667, 328.1,  nan 
12/01/2017,13:54:31.679,1512136471.679,24.621327833333,-84.103448166667, 331.9,  nan 
12/01/2017,13:54:39.648,1512136479.648,24.621329333333,-84.103445166667, 335.8,  nan 
12/01/2017,13:54:47.293,1512136487.293,24.621335166667,-84.103426666667, 339.1,  nan 
12/01/2017,13:54:55.267,1512136495.267,24.621329333333,-84.103404833333, 342.5,  nan 
12/01/2017,13:55:02.904,1512136502.904,24.621336833333,-84.103404166667, 345.7,  nan 
12/01/2017,13:55:10.876,1512136510.876,24.621331500000,-84.103385500000, 349.0,  nan 
12/01/2017,13:55:18.526,1512136518.526,24.621345833333,-84.103381833333, 352.1,  nan 
12/01/2017,13:55:26.502,1512136526.502,24.621349833333,-84.103364500000, 355.6,  nan 
12/01/2017,13:55:34.354,1512136534.354,24.621350333333,-84.103356000000, 359.1,  nan 
12/01/2017,13:55:42.111,1512136542.111,24.621357333333,-84.103348166667, 362.4,  nan 
12/01/2017,13:55:49.971,1512136549.971,24.621368833333,-84.103343833333, 365.8,  nan 
12/01/2017,13:55:57.730,1512136557.730,24.621366166667,-84.103340333333, 369.0,  nan 
12/01/2017,13:56:05.592,1512136565.592,24.621359833333,-84.103336333333, 372.3,  nan 
12/01/2017,13:56:13.669,1512136573.669,24.621361166667,-84.103328333333, 375.8,  nan 
12/01/2017,13:56:21.208,1512136581.208,24.621358166667,-84.103340166667, 379.3,  nan 
12/01/2017,13:56:29.176,1512136589.176,24.621367666667,-84.103334000000, 382.6,  nan 
12/01/2017,13:56:36.822,1512136596.822,24.621359500000,-84.103333166667, 386.0,  nan 
12/01/2017,13:56:44.574,1512136604.574,24.621380000000,-84.103315000000, 389.4,  nan 
12/01/2017,13:56:52.439,1512136612.439,24.621388500000,-84.103308833333, 393.0,  nan 
12/01/2017,13:57:00.193,1512136620.193,24.621382833333,-84.103310000000, 396.7,  nan 
12/01/2017,13:57:08.054,1512136628.054,24.621383166667,-84.103297333333, 400.6,  nan 
12/01/2017,13:57:15.806,1512136635.806,24.621375833333,-84.103291166667, 404.5,  nan 
12/01/2017,13:57:23.672,1512136643.672,24.621378000000,-84.103289666667, 408.1,  nan 
12/01/2017,13:57:31.641,1512136651.641,24.621377666667,-84.103284833333, 412.1,  nan 
12/01/2017,13:57:39.285,1512136659.285,24.621372833333,-84.103284500000, 416.0,  nan 
12/01/2017,13:57:47.257,1512136667.257,24.621385333333,-84.103280166667, 419.8,  nan 
12/01/2017,13:57:54.903,1512136674.903,24.621370500000,-84.103274333333, 423.7,  nan 
12/01/2017,13:58:02.870,1512136682.870,24.621367833333,-84.103275166667, 427.9,  nan 
12/01/2017,13:58:10.521,1512136690.521,24.621373166667,-84.103270166667, 431.5,  nan 
12/01/2017,13:58:18.490,1512136698.490,24.621372833333,-84.103272666667, 435.6,  nan 
12/01/2017,13:58:26.351,1512136706.351,24.621374833333,-84.103271000000, 439.7,  nan 
12/01/2017,13:58:34.108,1512136714.108,24.621369000000,-84.103268833333, 444.0,  nan 
12/01/2017,13:58:41.971,1512136721.971,24.621368000000,-84.103255833333, 447.9,  nan 
12/01/2017,13:58:49.719,1512136729.719,24.621364166667,-84.103252833333, 451.9,  nan 
12/01/2017,13:58:57.583,1512136737.583,24.621370666667,-84.103255000000, 456.1,  nan 
12/01/2017,13:59:05.335,1512136745.335,24.621364333333,-84.103247666667, 460.2,  nan 
12/01/2017,13:59:13.197,1512136753.197,24.621363833333,-84.103246333333, 464.3,  nan 
12/01/2017,13:59:20.953,1512136760.953,24.621375500000,-84.103241333333, 468.5,  nan 
12/01/2017,13:59:28.818,1512136768.818,24.621381166667,-84.103221000000, 472.3,  nan 
12/01/2017,13:59:36.571,1512136776.571,24.621392166667,-84.103226833333, 476.4,  nan 
12/01/2017,13:59:44.432,1512136784.432,24.621399833333,-84.103240000000, 480.5,  nan 
12/01/2017,13:59:52.186,1512136792.186,24.621407000000,-84.103219166667, 484.3,  nan 
12/01/2017,14:00:00.047,1512136800.047,24.621395500000,-84.103214000000, 488.3,  nan 
12/01/2017,14:00:07.800,1512136807.800,24.621414166667,-84.103193666667, 492.0,  nan 
12/01/2017,14:00:15.662,1512136815.662,24.621403000000,-84.103191166667, 495.7,  nan 
12/01/2017,14:00:23.420,1512136823.420,24.621403166667,-84.103194666667, 499.3,  nan 
12/01/2017,14:00:31.351,1512136831.351,24.621416166667,-84.103180000000, 503.1,  nan 
12/01/2017,14:00:39.143,1512136839.143,24.621419333333,-84.103177833333, 506.7,  nan 
12/01/2017,14:00:46.897,1512136846.897,24.621417833333,-84.103159166667, 510.2,  nan 
12/01/2017,14:00:54.756,1512136854.756,24.621423333333,-84.103153166667, 513.8,  nan 
12/01/2017,14:01:02.512,1512136862.512,24.621425000000,-84.103146166667, 517.4,  nan 
12/01/2017,14:01:10.385,1512136870.385,24.621411166667,-84.103155333333, 521.2,  nan 
12/01/2017,14:01:18.123,1512136878.123,24.621439166667,-84.103132000000, 525.0,  nan 
12/01/2017,14:01:25.988,1512136885.988,24.621430500000,-84.103129000000, 528.9,  nan 
12/01/2017,14:01:33.743,1512136893.743,24.621444833333,-84.103130000000, 532.7,  nan 
12/01/2017,14:01:41.608,1512136901.608,24.621446166667,-84.103120500000, 536.5,  nan 
12/01/2017,14:01:49.356,1512136909.356,24.621442333333,-84.103118500000, 540.6,  nan 
12/01/2017,14:01:57.222,1512136917.222,24.621447666667,-84.103111833333, 544.7,  nan 
12/01/2017,14:02:04.979,1512136924.979,24.621450000000,-84.103101166667, 548.8,  nan 
12/01/2017,14:02:12.838,1512136932.838,24.621461833333,-84.103102666667, 552.7,  nan 
12/01/2017,14:02:20.591,1512136940.591,24.621470666667,-84.103108000000, 556.6,  nan 
12/01/2017,14:02:28.488,1512136948.488,24.621461500000,-84.103108500000, 560.6,  nan 
12/01/2017,14:02:36.425,1512136956.425,24.621466833333,-84.103111333333, 564.8,  nan 
12/01/2017,14:02:44.070,1512136964.070,24.621485833333,-84.103114000000, 569.0,  nan 
12/01/2017,14:02:52.042,1512136972.042,24.621470500000,-84.103103666667, 572.8,  nan 
12/01/2017,14:02:59.686,1512136979.686,24.621481333333,-84.103103333333, 576.6,  nan 
12/01/2017,14:03:07.656,1512136987.656,24.621494333333,-84.103103500000, 580.9,  nan 
12/01/2017,14:03:15.306,1512136995.306,24.621484000000,-84.103097166667, 585.0,  nan 
12/01/2017,14:03:23.276,1512137003.276,24.621505666667,-84.103102166667, 589.0,  nan 
12/01/2017,14:03:30.918,1512137010.918,24.621511166667,-84.103077500000, 592.7,  nan 
12/01/2017,14:03:38.888,1512137018.888,24.621505500000,-84.103104833333, 596.8,  nan 
12/01/2017,14:03:46.754,1512137026.754,24.621531000000,-84.103111000000, 600.4,  nan 
12/01/2017,14:03:54.505,1512137034.505,24.621516166667,-84.103111666667, 604.2,  nan 
12/01/2017,14:04:02.150,1512137042.150,24.621527666667,-84.103108666667, 608.2,  nan 
12/01/2017,14:04:10.120,1512137050.120,24.621524500000,-84.103116000000, 612.1,  nan 
12/01/2017,14:04:17.764,1512137057.764,24.621547166667,-84.103129166667, 615.8,  nan 
12/01/2017,14:04:25.739,1512137065.739,24.621529666667,-84.103117333333, 620.0,  nan 
12/01/2017,14:04:33.383,1512137073.383,24.621529166667,-84.103121666667, 623.6,  nan 
12/01/2017,14:04:41.355,1512137081.355,24.621546166667,-84.103131833333, 627.5,  nan 
12/01/2017,14:04:49.220,1512137089.220,24.621522833333,-84.103122500000, 631.4,  nan 
12/01/2017,14:04:56.969,1512137096.969,24.621564166667,-84.103141666667, 635.2,  nan 
12/01/2017,14:05:12.589,1512137112.589,24.621556000000,-84.103132500000, 642.7,  nan 
12/01/2017,14:05:20.578,1512137120.578,24.621558833333,-84.103134166667, 646.7,  nan 
12/01/2017,14:05:28.313,1512137128.313,24.621556333333,-84.103148000000, 650.6,  nan 
12/01/2017,14:05:43.868,1512137143.868,24.621551333333,-84.103136833333, 658.4,  nan 
12/01/2017,14:05:51.728,1512137151.728,24.621554000000,-84.103156833333, 662.0,  nan 
12/01/2017,14:05:59.479,1512137159.479,24.621568000000,-84.103143166667, 666.2,  nan 
12/01/2017,14:06:07.342,1512137167.342,24.621571000000,-84.103153833333, 670.2,  nan 
12/01/2017,14:06:15.206,1512137175.206,24.621570666667,-84.103151833333, 674.0,  nan 
12/01/2017,14:06:38.574,1512137198.574,24.621586666667,-84.103160833333, 685.8,  nan 
12/01/2017,14:07:02.164,1512137222.164,24.621594166667,-84.103166666667, 698.2,  nan 
12/01/2017,14:07:09.811,1512137229.811,24.621599833333,-84.103165666667, 701.9,  nan 
12/01/2017,14:07:17.780,1512137237.780,24.621616666667,-84.103180666667, 705.9,  nan 
12/01/2017,14:07:25.422,1512137245.422,24.621589666667,-84.103173666667, 709.9,  nan 
12/01/2017,14:07:33.398,1512137253.398,24.621608166667,-84.103172833333, 713.9,  nan 
12/01/2017,14:07:41.041,1512137261.041,24.621605166667,-84.103183333333, 717.8,  nan 
12/01/2017,14:07:49.011,1512137269.011,24.621603500000,-84.103183666667, 721.8,  nan 
12/01/2017,14:07:56.654,1512137276.654,24.621619500000,-84.103187666667, 725.3,  nan 
12/01/2017,14:08:04.629,1512137284.629,24.621625500000,-84.103195833333, 729.6,  nan 
12/01/2017,14:08:12.274,1512137292.274,24.621619000000,-84.103205000000, 733.7,  nan 
12/01/2017,14:08:20.245,1512137300.245,24.621630166667,-84.103219833333, 737.7,  nan 
12/01/2017,14:08:27.885,1512137307.885,24.621623166667,-84.103224333333, 741.6,  nan 
12/01/2017,14:08:35.864,1512137315.864,24.621629000000,-84.103235500000, 745.6,  nan 
12/01/2017,14:08:43.506,1512137323.506,24.621647500000,-84.103246500000, 749.5,  nan 
12/01/2017,14:08:51.473,1512137331.473,24.621697500000,-84.103308000000, 753.4,  nan 
12/01/2017,14:08:59.370,1512137339.370,24.621642166667,-84.103259166667, 757.5,  nan 
12/01/2017,14:09:07.123,1512137347.123,24.621633833333,-84.103300333333, 761.8,  nan 
12/01/2017,14:09:14.768,1512137354.768,24.621673333333,-84.103317500000, 765.3,  nan 
12/01/2017,14:09:22.736,1512137362.736,24.621681000000,-84.103319000000, 769.7,  nan 
12/01/2017,14:09:30.384,1512137370.384,24.621671166667,-84.103351000000, 773.6,  nan 
12/01/2017,14:09:38.351,1512137378.351,24.621681000000,-84.103382166667, 777.6,  nan 
12/01/2017,14:09:45.997,1512137385.997,24.621674833333,-84.103378000000, 781.6,  nan 
12/01/2017,14:09:53.970,1512137393.970,24.621673333333,-84.103392833333, 786.1,  nan 
12/01/2017,14:10:01.830,1512137401.830,24.621683166667,-84.103402666667, 790.2,  nan 
12/01/2017,14:10:09.590,1512137409.590,24.621687166667,-84.103420666667, 794.1,  nan 
12/01/2017,14:10:17.449,1512137417.449,24.621664833333,-84.103433500000, 798.0,  nan 
12/01/2017,14:10:25.202,1512137425.202,24.621682833333,-84.103446833333, 802.1,  nan 
12/01/2017,14:10:33.065,1512137433.065,24.621695666667,-84.103468000000, 806.3,  nan 
12/01/2017,14:10:40.823,1512137440.823,24.621655000000,-84.103474666667, 810.2,  nan 
12/01/2017,14:10:48.683,1512137448.683,24.621664333333,-84.103505333333, 814.1,  nan 
12/01/2017,14:10:56.653,1512137456.653,24.621681500000,-84.103518166667, 818.2,  nan 
12/01/2017,14:11:04.301,1512137464.301,24.621689500000,-84.103511666667, 822.0,  nan 
12/01/2017,14:11:12.269,1512137472.269,24.621667333333,-84.103542166667, 826.1,  nan 
12/01/2017,14:11:19.917,1512137479.917,24.621667333333,-84.103566666667, 830.2,  nan 
12/01/2017,14:11:27.886,1512137487.886,24.621660333333,-84.103576500000, 834.1,  nan 
12/01/2017,14:11:35.531,1512137495.531,24.621639166667,-84.103607833333, 837.9,  nan 
12/01/2017,14:11:43.285,1512137503.285,24.621632666667,-84.103621666667, 841.9,  nan 
12/01/2017,14:11:51.145,1512137511.145,24.621655166667,-84.103632833333, 846.0,  nan 
12/01/2017,14:11:59.118,1512137519.118,24.621673333333,-84.103645000000, 850.0,  nan 
12/01/2017,14:12:06.858,1512137526.858,24.621662833333,-84.103680833333, 853.7,  nan 
12/01/2017,14:12:14.735,1512137534.735,24.621671833333,-84.103684333333, 857.2,  nan 
12/01/2017,14:12:22.471,1512137542.471,24.621672333333,-84.103690166667, 860.7,  nan 
12/01/2017,14:12:30.230,1512137550.230,24.621650500000,-84.103723833333, 864.3,  nan 
12/01/2017,14:12:38.087,1512137558.087,24.621677833333,-84.103785333333, 868.2,  nan 
12/01/2017,14:12:45.845,1512137565.845,24.621642666667,-84.103777500000, 871.7,  nan 
12/01/2017,14:12:53.707,1512137573.707,24.621630166667,-84.103773666667, 875.1,  nan 
12/01/2017,14:13:01.473,1512137581.473,24.621622833333,-84.103794666667, 878.4,  nan 
12/01/2017,14:13:09.318,1512137589.318,24.621610333333,-84.103806500000, 882.2,  nan 
12/01/2017,14:13:17.196,1512137597.196,24.621603000000,-84.103844000000, 885.7,  nan 
12/01/2017,14:13:24.940,1512137604.940,24.621624333333,-84.103846166667, 889.4,  nan 
12/01/2017,14:13:32.801,1512137612.801,24.621648333333,-84.103847500000, 892.9,  nan 
12/01/2017,14:13:40.553,1512137620.553,24.621613833333,-84.103873500000, 896.3,  nan 
12/01/2017,14:13:48.415,1512137628.415,24.621654000000,-84.103920166667, 899.7,  nan 
12/01/2017,14:13:56.166,1512137636.166,24.621640833333,-84.103899000000, 903.1,  nan 
12/01/2017,14:14:04.033,1512137644.033,24.621638333333,-84.103898833333, 906.9,  nan 
12/01/2017,14:14:12.003,1512137652.003,24.621627500000,-84.103890833333, 910.3,  nan 
12/01/2017,14:14:19.650,1512137659.650,24.621604666667,-84.103907166667, 913.4,  nan 
12/01/2017,14:14:27.623,1512137667.623,24.621599833333,-84.103886333333, 916.4,  nan 
12/01/2017,14:14:35.266,1512137675.266,24.621590166667,-84.103897333333, 919.7,  nan 
12/01/2017,14:14:43.236,1512137683.236,24.621602166667,-84.103894666667, 923.5,  nan 
12/01/2017,14:14:50.878,1512137690.878,24.621564000000,-84.103893500000, 927.8,  nan 
12/01/2017,14:14:58.636,1512137698.636,24.621553833333,-84.103896666667, 931.8,  nan 
12/01/2017,14:15:06.497,1512137706.497,24.621554500000,-84.103898333333, 936.0,  nan 
12/01/2017,14:15:14.465,1512137714.465,24.621557833333,-84.103897666667, 940.4,  nan 
12/01/2017,14:15:22.112,1512137722.112,24.621526166667,-84.103896000000, 944.5,  nan 
12/01/2017,14:15:30.085,1512137730.085,24.621516666667,-84.103893500000, 948.7,  nan 
12/01/2017,14:15:37.730,1512137737.730,24.621524500000,-84.103867500000, 952.6,  nan 
12/01/2017,14:15:45.698,1512137745.698,24.621530000000,-84.103888833333, 957.0,  nan 
12/01/2017,14:15:53.343,1512137753.343,24.621532333333,-84.103864666667, 960.9,  nan 
12/01/2017,14:16:01.317,1512137761.317,24.621503000000,-84.103871333333, 965.5,  nan 
12/01/2017,14:16:08.960,1512137768.960,24.621522000000,-84.103859000000, 969.7,  nan 
12/01/2017,14:16:16.931,1512137776.931,24.621491000000,-84.103870833333, 974.1,  nan 
12/01/2017,14:16:24.793,1512137784.793,24.621507500000,-84.103877500000, 978.4,  nan 
12/01/2017,14:16:32.547,1512137792.547,24.621488333333,-84.103855833333, 982.2,  nan 
12/01/2017,14:16:40.413,1512137800.413,24.621486833333,-84.103889666667, 986.4,  nan 
12/01/2017,14:16:48.160,1512137808.160,24.621458666667,-84.103866333333, 990.7,  nan 
12/01/2017,14:16:56.022,1512137816.022,24.621457500000,-84.103875833333, 995.1,  nan 
12/01/2017,14:17:03.784,1512137823.784,24.621425166667,-84.103872500000, 999.1,  nan 
12/01/2017,14:17:11.643,1512137831.643,24.621452000000,-84.103855833333,1003.2,  nan 
12/01/2017,14:17:19.395,1512137839.395,24.621457333333,-84.103867000000,1007.2,  nan 
12/01/2017,14:17:27.258,1512137847.258,24.621445333333,-84.103841833333,1011.8,  nan 
12/01/2017,14:17:35.012,1512137855.012,24.621464333333,-84.103873333333,1016.6,  nan 
12/01/2017,14:17:42.873,1512137862.873,24.621443500000,-84.103846333333,1021.0,  nan 
12/01/2017,14:17:50.626,1512137870.626,24.621454166667,-84.103855666667,1025.3,  nan 
12/01/2017,14:17:58.494,1512137878.494,24.621456000000,-84.103859333333,1029.7,  nan 
12/01/2017,14:18:06.243,1512137886.243,24.621408000000,-84.103833000000,1034.0,  nan 
12/01/2017,14:18:14.109,1512137894.109,24.621426166667,-84.103829333333,1038.4,  nan 
12/01/2017,14:18:22.081,1512137902.081,24.621424166667,-84.103841166667,1042.9,  nan 
12/01/2017,14:18:29.724,1512137909.724,24.621439666667,-84.103839333333,1047.1,  nan 
12/01/2017,14:18:37.703,1512137917.703,24.621432666667,-84.103825166667,1051.2,  nan 
12/01/2017,14:18:45.353,1512137925.353,24.621429500000,-84.103829000000,1055.2,  nan 
12/01/2017,14:18:53.094,1512137933.094,24.621381166667,-84.103861166667,1059.4,  nan 
12/01/2017,14:19:00.958,1512137940.958,24.621421000000,-84.103858166667,1063.5,  nan 
12/01/2017,14:19:08.925,1512137948.925,24.621423000000,-84.103841500000,1067.6,  nan 
12/01/2017,14:19:16.573,1512137956.573,24.621432666667,-84.103787833333,1071.3,  nan 
12/01/2017,14:19:24.543,1512137964.543,24.621431166667,-84.103820500000,1075.3,  nan 
12/01/2017,14:19:32.839,1512137972.839,24.621425000000,-84.103797833333,1079.5,  nan 
12/01/2017,14:19:40.158,1512137980.158,24.621387000000,-84.103800166667,1083.0,  nan 
12/01/2017,14:19:47.805,1512137987.805,24.621408666667,-84.103801833333,1086.9,  nan 
12/01/2017,14:19:55.774,1512137995.774,24.621407833333,-84.103815166667,1090.8,  nan 
12/01/2017,14:20:03.419,1512138003.419,24.621405500000,-84.103797166667,1094.4,  nan 
12/01/2017,14:20:11.389,1512138011.389,24.621398333333,-84.103798500000,1098.3,  nan 
12/01/2017,14:20:19.254,1512138019.254,24.621396333333,-84.103785833333,1102.2,  nan 
12/01/2017,14:20:27.006,1512138027.006,24.621419833333,-84.103770833333,1106.3,  nan 
12/01/2017,14:20:34.868,1512138034.868,24.621407500000,-84.103767833333,1110.3,  nan 
12/01/2017,14:20:42.623,1512138042.623,24.621402500000,-84.103748333333,1113.9,  nan 
12/01/2017,14:20:50.565,1512138050.565,24.621398000000,-84.103753833333,1117.7,  nan 
12/01/2017,14:20:58.234,1512138058.234,24.621415833333,-84.103774500000,1121.2,  nan 
12/01/2017,14:21:06.100,1512138066.100,24.621389500000,-84.103775000000,1125.2,  nan 
12/01/2017,14:21:13.856,1512138073.856,24.621388333333,-84.103771166667,1129.2,  nan 
12/01/2017,14:21:21.719,1512138081.719,24.621378333333,-84.103773500000,1133.3,  nan 
12/01/2017,14:21:29.687,1512138089.687,24.621390333333,-84.103784500000,1137.4,  nan 
12/01/2017,14:21:37.335,1512138097.335,24.621380333333,-84.103761500000,1140.8,  nan 
12/01/2017,14:21:45.305,1512138105.305,24.621386500000,-84.103762833333,1144.8,  nan 
12/01/2017,14:21:52.951,1512138112.951,24.621365000000,-84.103742833333,1148.9,  nan 
12/01/2017,14:22:00.925,1512138120.925,24.621387500000,-84.103741666667,1152.9,  nan 
12/01/2017,14:22:08.564,1512138128.564,24.621394666667,-84.103749333333,1156.8,  nan 
12/01/2017,14:22:16.330,1512138136.330,24.621381166667,-84.103754833333,1161.2,  nan 
12/01/2017,14:22:24.179,1512138144.179,24.621358000000,-84.103749666667,1165.1,  nan 
12/01/2017,14:22:32.150,1512138152.150,24.621372333333,-84.103727000000,1169.3,  nan 
12/01/2017,14:22:39.798,1512138159.798,24.621384333333,-84.103732666667,1173.4,  nan 
12/01/2017,14:22:47.770,1512138167.770,24.621368000000,-84.103723166667,1177.4,  nan 
12/01/2017,14:22:55.414,1512138175.414,24.621350833333,-84.103715166667,1181.6,  nan 
12/01/2017,14:23:03.393,1512138183.393,24.621349000000,-84.103712166667,1185.6,  nan 
12/01/2017,14:23:11.029,1512138191.029,24.621350666667,-84.103730166667,1189.6,  nan 
12/01/2017,14:23:18.999,1512138198.999,24.621354166667,-84.103735666667,1193.6,  nan 
12/01/2017,14:23:26.648,1512138206.648,24.621323500000,-84.103704833333,1197.5,  nan 
12/01/2017,14:23:34.618,1512138214.618,24.621346000000,-84.103705333333,1201.6,  nan 
12/01/2017,14:23:42.478,1512138222.478,24.621336000000,-84.103708833333,1205.8,  nan 
12/01/2017,14:23:50.237,1512138230.237,24.621313000000,-84.103709833333,1209.7,  nan 
12/01/2017,14:23:58.097,1512138238.097,24.621326000000,-84.103690500000,1213.7,  nan 
12/01/2017,14:24:05.867,1512138245.867,24.621333000000,-84.103697333333,1217.8,  nan 
12/01/2017,14:24:13.715,1512138253.715,24.621326333333,-84.103698500000,1221.7,  nan 
12/01/2017,14:24:21.467,1512138261.467,24.621281666667,-84.103630333333,1225.8,  nan 
12/01/2017,14:24:29.327,1512138269.327,24.621316500000,-84.103675666667,1229.8,  nan 
12/01/2017,14:24:37.193,1512138277.193,24.621306833333,-84.103663666667,1233.9,  nan 
12/01/2017,14:24:44.942,1512138284.942,24.621310333333,-84.103649666667,1238.0,  nan 
12/01/2017,14:24:52.701,1512138292.701,24.621310166667,-84.103659333333,1241.9,  nan 
12/01/2017,14:25:00.562,1512138300.562,24.621314666667,-84.103656333333,1246.4,  nan 
12/01/2017,14:25:08.311,1512138308.311,24.621314666667,-84.103675666667,1250.3,  nan 
12/01/2017,14:25:16.173,1512138316.173,24.621320166667,-84.103649000000,1254.6,  nan 
12/01/2017,14:25:23.927,1512138323.927,24.621325000000,-84.103653666667,1258.8,  nan 
12/01/2017,14:25:31.791,1512138331.791,24.621305333333,-84.103655833333,1262.8,  nan 
12/01/2017,14:25:39.657,1512138339.657,24.621300333333,-84.103663500000,1267.0,  nan 
12/01/2017,14:25:47.406,1512138347.406,24.621299833333,-84.103655666667,1270.9,  nan 
12/01/2017,14:25:55.268,1512138355.268,24.621271833333,-84.103625333333,1274.7,  nan 
12/01/2017,14:26:03.027,1512138363.027,24.621308833333,-84.103644000000,1278.7,  nan 
12/01/2017,14:26:10.887,1512138370.887,24.621292166667,-84.103631333333,1282.8,  nan 
12/01/2017,14:26:18.644,1512138378.644,24.621299833333,-84.103625833333,1286.8,  nan 
12/01/2017,14:26:26.504,1512138386.504,24.621274833333,-84.103610666667,1291.2,  nan 